OneWeb SL0204

operational
NORAD ID: 48225 Int'l Des: 2021-031 Owner: ONEWEBN Country: UK Constellation: oneweb
LEOCIRCULARPOLARONEWEB_TYPE

Über OneWeb SL0204

Beschreibung wird geladen...

Live-Position

3D-Globus wird geladen...

Nächste Überflüge

Höhenverlauf

Altitude vs Time

uPlot chart will show altitude changes over time

Zweizeiliger Elementsatz

1 48225U 21031R 25257.53983665 .00000175 00000-0 43832-3 0 9990
2 48225 87.9079 344.5856 0002084 95.4372 264.6996 13.14504263212042
Epoch: 14. Sept. 2025 • Age: 22 hours

Aktueller Status

Höhe 1216.8 km
Geschwindigkeit 7.24 km/s
Subsatellitenpunkt -27.50°S, 172.41°W
Startdatum 25. Apr. 2021
Alter 4.3 years
Typ internet

Technische Details

Klassifizierung Payload
Masse 148.00 kg
Trockenmasse 140.00 kg
Gesamtmasse 148.00 kg
Länge 1.30 m
Durchmesser 1.00 m
Spannweite 5.00 m
Form Trapezoid+2 pan
Hersteller ONEWUS
Bus-Typ ARROW
Phasenstatus In Orbit
Besitzer/Staat ONEWEBN/UK

Große Konstellationen

Loading constellations...